Location: De Forest
(43.2480°N, 89.3440°W)
Time: 20:18:40
(UTC-05:00)

Tiangong 2 - Pass Details

Date: 30 May 2019
Orbit: 376 x 388 km, 42.8° (Epoch: 24 June)

Event Time Altitude Azimuth Distance (km) Brightness Sun altitude
Rises 21:43:46 0° 275° (W) 2,238 5.8 -11.5°
Reaches altitude 10° 21:46:11 10° 257° (WSW) 1,382 4.3 -11.8°
Maximum altitude 21:48:30 19° 209° (SSW) 964 2.9 -12.1°
Enters shadow 21:49:45 15° 178° (S) 1,102 2.9 -12.2°
